This is the latest recevied weather packets stored in our database for station/object N3SBK. If no packets are shown the sender has not sent any weather packets the latest 10 day(s).
| Time | Temp. | Humidity | Pressure | Rain* | Wind** | Luminosity | Snow |
|---|---|---|---|---|---|---|---|
| 1787526269 | 20° C | 65% | 1005.2 hPa | 0 mm | - | 27 W/m² | - |
| 1787525965 | 20° C | 65% | 1005.2 hPa | 0 mm | - | 30 W/m² | - |
| 1787525661 | 20° C | 64% | 1005.1 hPa | 0 mm | - | 31 W/m² | - |
| 1787525360 | 20.56° C | 63% | 1005.1 hPa | 0 mm | - | 35 W/m² | - |
| 1787525057 | 20.56° C | 62% | 1005.4 hPa | 0 mm | - | 36 W/m² | - |
| 1787524756 | 20.56° C | 61% | 1005.2 hPa | 0 mm | - | 39 W/m² | - |
| 1787524453 | 20.56° C | 60% | 1005.2 hPa | 0 mm | - | 41 W/m² | - |
| 1787524153 | 20.56° C | 60% | 1005.2 hPa | 0 mm | - | 43 W/m² | - |
| 1787523849 | 20.56° C | 60% | 1005.2 hPa | 0 mm | - | 46 W/m² | - |
| 1787523548 | 21.11° C | 59% | 1005.4 hPa | 0 mm | - | 47 W/m² | - |
| 1787523244 | 21.11° C | 61% | 1005.2 hPa | 0 mm | - | 53 W/m² | - |
| 1787522940 | 21.11° C | 59% | 1005.3 hPa | 0 mm | - | 70 W/m² | - |
| 1787522635 | 21.11° C | 60% | 1005.2 hPa | 0 mm | - | 51 W/m² | - |
| 1787522330 | 21.11° C | 57% | 1005.1 hPa | 0 mm | - | 68 W/m² | - |
| 1787522026 | 21.67° C | 56% | 1004.8 hPa | 0 mm | - | 47 W/m² | - |
| 1787521724 | 21.67° C | 54% | 1005.1 hPa | 0 mm | - | 53 W/m² | - |
| 1787521419 | 21.67° C | 56% | 1005.2 hPa | 0 mm | - | 60 W/m² | - |
| 1787521119 | 22.22° C | 52% | 1005.1 hPa | 0 mm | - | 78 W/m² | - |
| 1787520814 | 22.78° C | 51% | 1005.1 hPa | 0 mm | - | 196 W/m² | - |
| 1787520510 | 22.78° C | 52% | 1004.7 hPa | 0 mm | - | 227 W/m² | - |
| 1787520206 | 22.78° C | 50% | 1004.8 hPa | 0 mm | - | 241 W/m² | - |
| 1787519901 | 22.78° C | 51% | 1005 hPa | 0 mm | - | 260 W/m² | - |
| 1787519597 | 22.78° C | 51% | 1004.8 hPa | 0 mm | - | 264 W/m² | - |
| 1787519296 | 23.33° C | 51% | 1004.8 hPa | 0 mm | - | 282 W/m² | - |
| 1787518992 | 23.33° C | 52% | 1004.8 hPa | 0 mm | - | 298 W/m² | - |
* Rain latest hour (hover to see other rain measurements)
** Current wind speed in m/s (hover to see current wind gust speed)